Cumberland, WV

5:13 PM EDT on April 29, 2017 (GMT -0400)
Greater Cumberland Regional

Weather History for KCBE - November, 2012

Change the Weather History Date:

Sunday, November 25, 2012

  Actual Average (KMRB) Record (KMRB)
Temperature  
Mean Temperature 36 °F -  
Max Temperature 44 °F 50 °F 80 °F (1973)
Min Temperature 28 °F 30 °F 11 °F (1970)
Degree Days  
Heating Degree Days 29    
Moisture  
Dew Point 21 °F    
Average Humidity 58    
Maximum Humidity 80    
Minimum Humidity 37    
Precipitation  
Precipitation 0.00 in - - ()
Sea Level Pressure  
Sea Level Pressure 30.02 in    
Wind  
Wind Speed 6 mph (WSW)    
Max Wind Speed 12 mph    
Max Gust Speed 23 mph    
Visibility 10 miles    
Events      
Averages and records for this station are not official NWS values.
T = Trace of Precipitation, MM = Missing Value Source: NWS Daily Summary

Daily Weather History Graph

Daily Weather History Graph

Search for Another Location

Airport or City:

Trip Planner

Search our weather history database for the weather conditions in past years. The results will help you decide how hot, cold, wet, or windy it might be!

Date:

Astronomy

Nov. 25, 2012 Rise Set
Actual Time 7:10 AM EST 4:53 PM EST
Civil Twilight 6:41 AM EST 5:22 PM EST
Nautical Twilight 6:08 AM EST 5:55 PM EST
Astronomical Twilight 5:36 AM EST 6:28 PM EST
Moon 3:08 PM EST (11/25) 4:23 AM EST (11/25)
Length of Visible Light 10h 41m
Length of Day
9h 42m
Waxing Gibbous, 93% of the Moon is Illuminated
Nov 25
Waxing Gibbous
Nov 28
Full
Dec 6
Last Quarter
Dec 13
New
Dec 20
First Quarter

Hourly Weather History & Observations

Time (EST) Temp. Windchill Dew Point Humidity Pressure Visibility Wind Dir Wind Speed Gust Speed Precip Events Conditions
12:07 AM 32.0 °F 26.4 °F 19.4 °F 60% 30.08 in 10.0 mi West 5.8 mph - N/A   Overcast
12:28 AM 32.0 °F 26.4 °F 21.2 °F 64% 30.08 in 10.0 mi West 5.8 mph - N/A   Overcast
12:50 AM 32.0 °F 24.2 °F 21.2 °F 64% 30.07 in 10.0 mi West 9.2 mph - N/A   Overcast
1:11 AM 32.0 °F 27.5 °F 21.2 °F 64% 30.08 in 10.0 mi West 4.6 mph - N/A   Overcast
1:32 AM 32.0 °F 25.6 °F 21.2 °F 64% 30.08 in 10.0 mi West 6.9 mph 16.1 mph N/A   Overcast
1:54 AM 32.0 °F 23.6 °F 19.4 °F 60% 30.08 in 10.0 mi West 10.4 mph 21.9 mph N/A   Overcast
2:15 AM 32.0 °F 26.4 °F 21.2 °F 64% 30.09 in 10.0 mi West 5.8 mph - N/A   Overcast
2:36 AM 32.0 °F 26.4 °F 21.2 °F 64% 30.09 in 10.0 mi NW 5.8 mph - N/A   Overcast
2:57 AM 32.0 °F 23.6 °F 21.2 °F 64% 30.09 in 10.0 mi West 10.4 mph - N/A   Overcast
3:19 AM 32.0 °F 24.2 °F 21.2 °F 64% 30.08 in 10.0 mi West 9.2 mph - N/A   Overcast
3:40 AM 32.0 °F 23.6 °F 21.2 °F 64% 30.07 in 10.0 mi WSW 10.4 mph - N/A   Overcast
4:01 AM 32.0 °F 25.6 °F 21.2 °F 64% 30.07 in 10.0 mi West 6.9 mph 21.9 mph N/A   Overcast
4:23 AM 32.0 °F 23.0 °F 21.2 °F 64% 30.09 in 10.0 mi WSW 11.5 mph 18.4 mph N/A   Overcast
4:44 AM 32.0 °F 24.8 °F 21.2 °F 64% 30.08 in 10.0 mi WNW 8.1 mph 16.1 mph N/A   Overcast
5:05 AM 32.0 °F 26.4 °F 21.2 °F 64% 30.09 in 10.0 mi West 5.8 mph 23.0 mph N/A   Overcast
5:27 AM 32.0 °F 25.6 °F 19.4 °F 60% 30.09 in 10.0 mi WNW 6.9 mph 20.7 mph N/A   Overcast
5:48 AM 32.0 °F 24.2 °F 19.4 °F 60% 30.08 in 10.0 mi West 9.2 mph - N/A   Overcast
6:09 AM 32.0 °F 25.6 °F 21.2 °F 64% 30.08 in 10.0 mi West 6.9 mph 18.4 mph N/A   Overcast
6:31 AM 32.0 °F 25.6 °F 21.2 °F 64% 30.07 in 10.0 mi West 6.9 mph - N/A   Overcast
6:52 AM 32.0 °F 28.7 °F 21.2 °F 64% 30.08 in 10.0 mi WSW 3.5 mph - N/A   Mostly Cloudy
7:56 AM 32.0 °F 28.7 °F 21.2 °F 64% 30.08 in 10.0 mi West 3.5 mph - N/A   Overcast
8:17 AM 32.0 °F 26.4 °F 21.2 °F 64% 30.08 in 10.0 mi WSW 5.8 mph - N/A   Scattered Clouds
8:38 AM 32.0 °F 25.6 °F 21.2 °F 64% 30.08 in 10.0 mi SW 6.9 mph - N/A   Scattered Clouds
8:59 AM 32.0 °F 26.4 °F 21.2 °F 64% 30.08 in 10.0 mi WSW 5.8 mph - N/A   Scattered Clouds
9:20 AM 33.8 °F 28.6 °F 21.2 °F 60% 30.07 in 10.0 mi SW 5.8 mph - N/A   Clear
9:42 AM 33.8 °F 28.6 °F 21.2 °F 60% 30.07 in 10.0 mi West 5.8 mph - N/A   Clear
10:03 AM 33.8 °F 27.0 °F 21.2 °F 60% 30.07 in 10.0 mi SW 8.1 mph - N/A   Clear
10:24 AM 35.6 °F 32.8 °F 23.0 °F 60% 30.06 in 10.0 mi WSW 3.5 mph - N/A   Clear
10:45 AM 35.6 °F 29.2 °F 23.0 °F 60% 30.05 in 10.0 mi SSW 8.1 mph - N/A   Clear
11:07 AM 35.6 °F 29.9 °F 21.2 °F 56% 30.05 in 10.0 mi SSW 6.9 mph - N/A   Clear
11:28 AM 37.4 °F 33.8 °F 23.0 °F 56% 30.02 in 10.0 mi SW 4.6 mph - N/A   Clear
11:49 AM 39.2 °F 32.5 °F 21.2 °F 49% 30.01 in 10.0 mi WSW 10.4 mph - N/A   Clear
12:10 PM 39.2 °F 34.2 °F 21.2 °F 49% 30.00 in 10.0 mi SSW 6.9 mph - N/A   Clear
12:32 PM 39.2 °F 34.2 °F 21.2 °F 49% 29.98 in 10.0 mi SW 6.9 mph - N/A   Scattered Clouds
12:53 PM 39.2 °F 33.6 °F 21.2 °F 49% 29.97 in 10.0 mi SSW 8.1 mph - N/A   Scattered Clouds
1:14 PM 41.0 °F 34.3 °F 19.4 °F 42% 29.95 in 10.0 mi South 11.5 mph 16.1 mph N/A   Clear
1:35 PM 41.0 °F 35.8 °F 19.4 °F 42% 29.94 in 10.0 mi SSW 8.1 mph - N/A   Clear
2:18 PM 42.8 °F 41.1 °F 21.2 °F 42% 29.93 in 10.0 mi SSW 3.5 mph - N/A   Clear
2:39 PM 42.8 °F 40.1 °F 19.4 °F 39% 29.92 in 10.0 mi South 4.6 mph - N/A   Clear
3:00 PM 44.6 °F 39.2 °F 19.4 °F 37% 29.91 in 10.0 mi WSW 10.4 mph - N/A   Clear
3:22 PM 44.6 °F 39.2 °F 19.4 °F 37% 29.91 in 10.0 mi SW 10.4 mph - N/A   Clear
3:43 PM 44.6 °F 40.2 °F 19.4 °F 37% 29.91 in 10.0 mi SW 8.1 mph - N/A   Clear
4:04 PM 44.6 °F 38.8 °F 19.4 °F 37% 29.91 in 10.0 mi West 11.5 mph 18.4 mph N/A   Clear
4:25 PM 44.6 °F 42.2 °F 19.4 °F 37% 29.91 in 10.0 mi SW 4.6 mph - N/A   Clear
4:47 PM 42.8 °F 40.1 °F 19.4 °F 39% 29.91 in 10.0 mi SW 4.6 mph - N/A   Clear
5:08 PM 41.0 °F 39.0 °F 19.4 °F 42% 29.92 in 10.0 mi SSW 3.5 mph - N/A   Clear
5:29 PM 41.0 °F - 19.4 °F 42% 29.92 in 10.0 mi Calm Calm - N/A   Clear
5:50 PM 39.2 °F - 19.4 °F 45% 29.93 in 10.0 mi Calm Calm - N/A   Clear
6:12 PM 37.4 °F - 19.4 °F 48% 29.94 in 10.0 mi Calm Calm - N/A   Clear
6:33 PM 37.4 °F - 21.2 °F 52% 29.95 in 10.0 mi Calm Calm - N/A   Clear
6:54 PM 35.6 °F 32.8 °F 21.2 °F 56% 29.95 in 10.0 mi NNW 3.5 mph - N/A   Clear
7:15 PM 33.8 °F - 21.2 °F 60% 29.96 in 7.0 mi Calm Calm - N/A   Clear
7:36 PM 33.8 °F - 21.2 °F 60% 29.97 in 7.0 mi Calm Calm - N/A   Clear
7:58 PM 33.8 °F - 21.2 °F 60% 29.97 in 10.0 mi Calm Calm - N/A   Clear
8:19 PM 32.0 °F - 21.2 °F 64% 29.99 in 10.0 mi Calm Calm - N/A   Clear
8:40 PM 32.0 °F - 21.2 °F 64% 29.99 in 10.0 mi Calm Calm - N/A   Clear
9:01 PM 32.0 °F - 24.8 °F 75% 29.99 in 10.0 mi Calm Calm - N/A   Clear
9:23 PM 32.0 °F - 23.0 °F 69% 29.99 in 10.0 mi Calm Calm - N/A   Clear
9:44 PM 30.2 °F - 23.0 °F 75% 29.99 in 10.0 mi Calm Calm - N/A   Clear
10:48 PM 28.4 °F - 23.0 °F 80% 30.00 in 10.0 mi Calm Calm - N/A   Clear
11:09 PM 28.4 °F 23.3 °F 23.0 °F 80% 30.00 in 10.0 mi South 4.6 mph - N/A   Clear
11:30 PM 30.2 °F 26.7 °F 23.0 °F 75% 30.01 in 10.0 mi SSW 3.5 mph - N/A   Clear
11:52 PM 30.2 °F - 23.0 °F 75% 30.01 in 10.0 mi Calm Calm - N/A   Clear